{"data":{"norad_id":66961,"epoch":"2026-05-24T21:02:25.488960Z","epoch_age_seconds":75933,"freshness":"FRESH","line1":"1 66961U 25288C   26144.87668390  .00026012  00000+0  95079-3 0  9990","line2":"2 66961  42.9970 312.8151 0002051 280.4677  79.5944 15.27601376 26941","mean_motion":15.27601376,"eccentricity":0.0002051,"inclination_deg":42.997,"raan_deg":312.8151,"arg_perigee_deg":280.4677,"mean_anomaly_deg":79.5944,"bstar":0.00095079,"rev_number":2694,"period_min":94.265429622132,"perigee_km":481.57787321154,"apogee_km":484.39230549259,"semimajor_km":6861.1220893521,"source":"CELESTRAK","updated_at":"2026-05-25T13:38:21.392716Z"}}